Вернуться в каталог

STARLINK-3552

АктивенСвязьVLEO
NORAD 51813·PAYLOAD·🇺🇸 United States

Запущен Feb 25, 2022 с Vandenberg Space Force Base

Loading…

Ближайшие Пролёты (ближайшие 24 часа)

TLE

СвежийSource: CelesTrak SupGP

Эпоха: Sep 14, 2026, 21:30 UTC

1 51813C 22017AX  26257.89631944 -.00013648  00000+0 -39041-3 0  2576
2 51813  53.1583 189.6493 0001282  96.9221 258.5499 15.35411118    10

Отслеживайте STARLINK-3552 в реальном времени с AllMySat

Download on the App Store